Location: Newark
(41.0400°S, 62.7845°W)
Time: 01:47:35
(UTC+00:00)

ISS - Pass Details

Date: 27 October 2021
Orbit: 417 x 423 km, 51.6° (Epoch: 01 December)

Event Time Altitude Azimuth Distance (km) Brightness Sun altitude
Rises 00:26:50 0° 231° (SW) 2,415 1.9 -17.9°
Reaches altitude 10° 00:29:23 10° 212° (SSW) 1,546 0.2 -18.3°
Maximum altitude 00:31:59 19° 164° (SSE) 1,092 -1.5 -18.7°
Enters shadow 00:33:24 16° 132° (SE) 1,240 -1.5 -18.9°
